Hourly Weather Roundup
Issued by NWS Central Illinois

Home | Current Version | Previous Version | Text Only | Print | Product List | Glossary On
Versions: 1 2 3 4 5 6 7 8 9 10 11 12 13 14 15 16 17 18 19 20 21 22 23 24 25 26 27 28 29 30 31 32 33 34 35 36 37 38 39 40 41 42 43 44 45 46 47 48 49 50
624
NZUS43 KILX 250810
HWRILX

Area Weather Roundup
National Weather Service Lincoln IL
300 AM CDT MON SEP 25 2017

NOTE:  "FAIR" indicates few or no clouds below 12,000 feet, with
       no sigificant weather and/or obstructions to visibility.


CITY           SKY/WX    TMP DP  RH WIND       PRES   REMARKS
Bloomington    CLEAR     68  60  75 S6        30.01S
Champaign      CLEAR     67  57  70 S5        30.01S
Danville       CLEAR     61  58  90 CALM      29.99S
Decatur        CLEAR     64  60  87 CALM      30.00S
Effingham      CLEAR     64  62  92 CALM      30.01S
Flora          MOCLDY    67  64  89 CALM      29.99F
Galesburg      CLEAR     70  59  69 S5        29.98R
Jacksonville   CLEAR     69  61  76 S5        29.97S
Lacon          CLEAR     68  60  74 SE5       29.97S
Lawrenceville  PTCLDY    68  63  84 CALM      30.01R
Litchfield     CLEAR     66  63  89 SE3       29.99S
$$


CITY           SKY/WX    TMP DP  RH WIND       PRES   REMARKS
Lincoln        CLEAR     66  61  82 SE3       29.98S
Macomb         CLEAR     62  60  92 CALM      29.98F
Mattoon        CLEAR     69  61  75 S5        29.99F
Mt Carmel AP   PTCLDY    66  64  92 CALM      30.00S
Olney-Noble AP CLEAR     65  64  93 CALM      30.00S
Paris AP       CLEAR     62  60  92 CALM      30.02S
Peoria         CLEAR     72  60  66 SE3       29.97S
Pontiac        CLEAR     64  63  96 CALM      30.00S
Rantoul        CLEAR     69  60  74 CALM      30.01S
Robinson       MOCLDY    62  61  96 CALM      30.01S
Springfield    CLEAR     72  63  73 S3        29.98S
Taylorville    CLEAR     66  60  82 S3        29.99S
$$

...REGIONAL REPORTS...


CITY           SKY/WX    TMP DP  RH WIND       PRES   REMARKS
Chicago O`Hare PTCLDY    71  59  65 S5        29.99S
Kankakee       PTCLDY    68  58  69 S3        30.01F
Moline         CLEAR     70  60  70 E5        29.95S
Mount Sterling CLEAR     66  62  87 CALM      29.96S
Mount Vernon     N/A     61  61 100 CALM      29.99F
Pittsfield     PTCLDY    68  63  85 CALM      29.98S
Quincy         CLEAR     73  63  70 S5        29.95S
Rockford       CLEAR     66  60  81 CALM      29.99F
$$


CITY           SKY/WX    TMP DP  RH WIND       PRES   REMARKS
Burlington     CLEAR     69  63  81 CALM      29.95S
Cedar Rapids   CLEAR     68  62  81 SE6       29.94F
Des Moines     PTCLDY    72  63  73 SE6       29.92S
Kirksville     CLEAR     64  61  90 CALM      29.96S
Ottumwa        CLEAR     70  63  78 S6        29.95R
St Louis       CLEAR     72  65  78 CALM      29.98S
$$


CITY           SKY/WX    TMP DP  RH WIND       PRES   REMARKS
Terre Haute    PTCLDY    61  57  87 CALM      30.01S
Evansville     CLOUDY    69  66  90 CALM      30.00S
Indianapolis   CLEAR     66  57  72 CALM      30.03S
Lafayette      CLEAR     63  58  83 CALM      30.01F
Madison        CLEAR     64  61  90 CALM      29.98S
Milwaukee      CLEAR     69  64  84 CALM      29.99S
$$






USA.gov is the U.S. government's official web portal to all federal, state and local government web resources and services.